星链-34965 (STARLINK-34965)

导读 | 豆包AI

STARLINK-34965是美国SpaceX星链星座的一颗卫星,于2025年8月14日发射。星链项目旨在构建全球卫星互联网星座,为全球用户提供覆盖偏远地区、信号盲区的高速宽带服务。该卫星入轨后将参与星链网络运营,扩展星座覆盖范围,提升全球卫星互联网服务的容量与稳定性。

基本信息
目录编号:
65186
目录名称:
STARLINK-34965
国际标识:
2025-175N
轨道中心:
EARTH
卫星名称:
星链-34965
卫星全名:
星链-34965 (STARLINK-34965)
卫星状态:
在轨 (已飞行258 天)
发射日期:
2025-08-14 UTC
国别 :
美国 (US)
星等 :
--
轨道信息
数据来源 国际轨道数据 AOE轨道数据
星历时间 2026-04-29T11:35:18+0800
6小时前
查看轨道信息
2026-04-23T00:00:00+0800
6天前
查看轨道信息
半长轴 6927.641km 6927.647km
偏心率 0.0002276 0.000308
轨道倾角 97.563° 97.587°
近地点辐角 93.166° 94.175°
升交点赤经 352.366° 346.006°
平近点角 266.982° 68.853°
近地点 547.927km 547.376km
远地点 551.081km 551.644km
周期 95.640分钟 95.640分钟
每日圈数 15.056524 15.056504
详细信息
固有亮度:
5
最大亮度:
2.5
卫星平台:
Starlink V1.0
覆盖范围:
全球
运营商:
太空探索技术公司
运营商所在国:
美国
制造商(研发单位):
太空探索技术公司
制造商所在国:
美国
使用方式:
暂无
卫星简介
Starlink 计划是 SpaceX 推出的全球卫星互联网项目,通过发射低轨道卫星,为全球尤其是偏远地区提供高速、低延迟的互联网服务。自 2019 年起,Starlink 已部署数千颗卫星,旨在缩小全球数字鸿沟,推动互联网普及。该项目还为军事、航空等行业提供通信支持,带来广泛经济效益。
2D轨道图
3D轨道图
轨道高度分析图
轨道倾角分析图
轨道综合分析图
查看轨道综合分析图